User: anonymous   Login
Location: ???????
(55.4362°N, 38.1183°E)
Time: 18:20:06
(UTC+00:00)
Language:

N. Korean satellite - Orbit

View from above orbital plane
View from above orbital plane
View from above satellite
View from above satellite

Ground track
Ground track

The orbit data is extracted from the following two-line orbital elements,

1 39026U 12072A   21290.87114540  .00005257  00000-0  17475-3 0  9992
2 39026  97.2537 280.8750 0033170 309.9340  49.8988 15.31081193491751
Epoch (UTC): 17 October 2021 20:54:26
Eccentricity: 0.0033170
inclination: 97.2537°
perigee height: 450 km
apogee height: 495 km
right ascension of ascending node: 280.8750°
argument of perigee: 309.9340°
revolutions per day: 15.31081193
mean anomaly at epoch: 49.8988°
orbit number at epoch: 49175

The dashed part of the orbit path shows where the satellite is in the earth's shadow,  

DLR